Location: *
(44.5653°N, 4.1050°E)
Time: 16:36:21
(UTC+00:00)

Daily predictions for brighter satellites

Satellite Brightness Start Highest point End
(mag) Time Altitude Azimuth Time Altitude Azimuth Time Altitude Azimuth
H-2A R/B 3.0 17:21:27 10° S 17:25:20 80° W 17:29:16 10° NNW
Cosmos 1606 Rocket 3.7 17:22:14 10° SSE 17:26:29 50° E 17:30:43 10° NNE
Unknown 3.9 17:22:45 10° WSW 17:26:52 68° NNW 17:31:01 10° NE
Ariane Rocket 4.3 17:24:46 10° ESE 17:28:18 19° ENE 17:31:52 10° NNE
Starlink (trailer) 3.9 17:24:25 10° WSW 17:28:33 67° NNW 17:32:41 10° NE
Cosmos 1242 Rocket 3.7 17:25:37 10° NNE 17:28:41 24° ENE 17:31:43 10° SE
Unknown 3.9 17:27:11 10° NW 17:29:26 24° NNE 17:31:43 10° E
Unknown 4.0 17:26:05 10° WSW 17:30:11 65° NNW 17:34:19 10° NE
Meteor 2-12 Rocket 4.5 17:24:50 10° N 17:31:00 68° E 17:37:07 10° SSE
Unknown 4.0 17:27:41 10° WSW 17:31:49 64° NNW 17:35:56 10° NE
Cosmos 2082 Rocket 3.9 17:29:35 10° N 17:32:48 15° NE 17:36:02 10° ENE
Cosmos 1953 2.3 17:29:21 10° S 17:33:23 70° E 17:37:27 10° NNE
COSMOS 2406 3.8 17:29:36 10° NNW 17:34:56 36° NE 17:40:12 10° ESE
Cosmos 1992 Rocket 4.0 17:30:13 10° S 17:35:25 71° ESE 17:40:38 10° NNE
Cosmos 1758 Rocket 3.6 17:31:02 10° N 17:35:31 84° E 17:40:00 10° S
Unknown 4.1 17:34:17 10° WSW 17:38:22 57° NNW 17:42:28 10° NE
Unknown 4.1 17:34:27 10° WSW 17:38:31 58° NNW 17:42:38 10° NE
Cosmos 304 Rocket 4.5 17:33:48 10° SW 17:38:32 58° WNW 17:43:18 10° NNE
Unknown 4.1 17:35:10 10° WSW 17:39:15 57° NNW 17:43:21 10° NE
Cosmos 1503 Rocket 4.0 17:34:14 10° NNW 17:39:26 83° ENE 17:44:37 10° SSE
Cosmos 1758 4.2 17:36:08 10° SSW 17:40:02 54° WNW 17:43:57 10° N
CSL-04 Debris 4.4 17:35:26 10° SE 17:40:38 49° ENE 17:45:54 10° N
Lacrosse 5 3.4 17:36:41 10° NW 17:40:41 23° NNE 17:44:40 10° ENE
Cosmos 292 Rocket 4.5 17:37:09 10° SSE 17:41:17 31° ESE 17:45:27 10° NE
Unknown 4.2 17:39:11 10° WSW 17:43:15 54° NNW 17:47:19 10° NE
Unknown 4.2 17:39:28 10° WSW 17:43:31 54° NNW 17:47:36 10° NE
Cosmos 2285 Rocket 4.1 17:38:35 10° NNW 17:45:04 89° WSW 17:51:29 10° SSE
Unknown 4.3 17:41:15 10° WSW 17:45:18 51° NNW 17:49:22 10° NE
Cosmos 839 Rocket 4.3 17:41:49 10° NNW 17:47:52 51° NE 17:54:35 10° SE
FengYun 1-2 T 4.2 17:42:29 10° SSE 17:48:06 71° ENE 17:53:43 10° N
Meteor 2-10 4.3 17:43:43 10° SSE 17:48:28 41° E 17:53:11 10° NNE
Unknown 4.3 17:44:35 10° WSW 17:48:37 49° NNW 17:52:40 10° NE
Unknown 4.3 17:45:03 10° WSW 17:49:06 50° NNW 17:53:09 10° NE
Unknown 4.3 17:46:10 10° WSW 17:50:12 50° NNW 17:54:15 10° NE
SKYMED 2 3.5 17:46:40 10° NNE 17:51:01 72° ESE 17:55:20 10° S
Unknown 4.4 17:49:22 10° WSW 17:53:23 49° NNW 17:57:23 10° NE
YAOGAN 1 2.6 17:50:45 10° SSE 17:54:58 57° ENE 17:59:14 10° N
Cosmos 1844 Rocket 2.9 17:49:32 10° SSW 17:55:12 77° WNW 18:00:52 10° NNE
Unknown 4.5 17:52:51 10° W 17:56:51 46° NNW 18:00:42 11° NE
YAOGAN 6 2.5 17:53:30 10° SSE 17:57:11 74° ENE 18:00:50 10° N
COBE Rocket 4.1 17:52:26 10° N 17:57:38 81° WNW 18:02:43 10° SSW
H-2A R/B 3.8 17:57:23 13° ENE 17:58:18 13° NE 18:00:46 10° NNE
Unknown 4.5 17:54:32 10° W 17:58:32 45° NNW 18:02:18 11° NE
Meteor 1-16 Rocket 4.1 17:55:25 10° S 18:00:58 72° E 18:06:24 10° NNE
Cosmos 1939 Rocket 3.5 17:58:03 10° SE 18:01:37 33° ENE 18:05:15 10° N
Lacrosse 5 rocket 1.5 18:00:31 10° NW 18:04:15 65° SW 18:08:12 10° SE
Cosmos 1908 3.6 18:02:49 10° SSE 18:06:29 41° E 18:10:11 10° NNE
Cosmos 1726 Rocket 3.8 18:03:56 10° SSW 18:08:20 72° W 18:12:43 10° N
Cosmos 482 Debris 4.1 18:07:00 10° WNW 18:12:09 86° NNE 18:13:57 25° ESE
Cosmos 2278 Rocket 2.6 18:08:46 10° S 18:13:58 39° ESE 18:19:12 10° NE
Shenzhou-11 Module 2.0 18:11:54 10° WSW 18:14:37 56° S 18:15:24 38° ESE
Cosmos 1328 3.7 18:12:50 10° N 18:16:51 81° E 18:20:47 10° S
Cosmos 2228 3.9 18:13:28 10° SSW 18:17:45 53° WNW 18:22:02 10° N
Cosmos 1844 4.2 18:12:23 10° SW 18:18:02 65° WNW 18:23:49 10° NNE
CZ-4C R/B 4.1 18:11:06 10° NW 18:18:05 46° WSW 18:25:51 10° S
Cosmos 2058 Rocket 3.1 18:16:35 10° S 18:20:57 81° W 18:25:19 10° N
Cosmos 1339 Rocket 4.4 18:15:13 10° S 18:21:10 61° E 18:27:12 10° NNE
CZ-4 R/B 2.3 18:18:27 10° S 18:22:31 54° W 18:26:39 10° NNW
ATLAS 5 CENTAUR R/B 3.4 18:20:25 10° W 18:24:15 29° NW 18:28:31 10° NNE
Envisat 4.2 18:19:28 10° S 18:24:19 44° W 18:29:11 10° NNW
Cosmos 921 Rocket 3.8 18:24:22 10° SSW 18:28:48 57° WNW 18:33:13 10° N
Abrixas rocket 3.2 18:30:43 10° SSW 18:32:58 30° S 18:32:58 30° S
Cosmos 1605 Rocket 3.9 18:28:17 10° N 18:34:32 83° E 18:40:39 10° S
Cosmos 1356 4.1 18:31:26 10° SSW 18:34:48 56° WNW 18:38:13 10° N
Unknown 3.6 18:33:58 10° NW 18:36:51 40° NNE 18:36:51 40° NNE
DMSP B5D1-3 4.4 18:33:26 10° NNE 18:38:36 88° ESE 18:43:44 10° SSW
COSMO-SKYMED 1 4.2 18:35:01 10° N 18:39:01 36° WNW 18:42:58 10° SW
CSL-04 Rocket 4.4 18:33:53 10° S 18:39:19 56° W 18:44:45 10° NNW
ADEOS Rocket 4.0 18:32:58 10° NNE 18:39:48 33° E 18:46:12 10° SSE
Cosmos 1727 Rocket 3.9 18:35:05 10° S 18:41:08 60° E 18:47:13 10° NNE
NOAA 11 4.2 18:39:17 10° SSE 18:44:44 84° WSW 18:50:12 10° NNW
CZ-2D R/B 3.7 18:44:28 10° S 18:48:15 62° WSW 18:52:06 10° NNW
MINOTAUR IV R/B 4.5 18:46:49 10° NNW 18:51:22 73° ENE 18:52:26 51° SE
Cosmos 1726 3.9 18:49:22 10° SW 18:52:41 32° WNW 18:56:01 10° N
SL-4 R/B 4.0 18:51:48 10° W 18:54:37 20° SW 18:56:20 15° S
Cosmos 2173 Rocket 4.2 18:49:40 10° N 18:55:43 47° ENE 18:56:56 42° ESE
ARGOS 3.9 18:57:06 35° NE 18:57:06 35° NE 19:01:25 10° N
Cosmos 2058 4.4 18:52:47 10° N 18:54:46 24° NNE 18:54:46 24° NNE
Cosmos 1833 Rocket 2.6 18:52:24 10° NNW 18:58:03 73° ENE 18:59:52 43° SE
BREEZE M DEB (TANK) 2.7 18:55:47 10° WNW 18:58:32 68° SSW 18:59:45 46° SE
Gbstr 26 Del rocket 4.2 18:59:57 10° WNW 19:06:17 69° NNE 19:08:27 46° E
Ariane Rocket 3.4 19:01:45 10° S 19:06:47 62° WSW 19:11:52 10° NNW
USA 238 DEB 3.6 19:02:00 10° SSW 19:08:34 63° ESE 19:11:08 38° ENE
USA 238 3.6 19:02:07 10° SSW 19:08:41 63° ESE 19:11:11 39° ENE
Cosmos 1000 Rocket 4.4 19:14:23 57° ESE 19:14:57 59° E 19:21:04 10° NNE
Cosmos 2100 Rocket 3.8 19:08:47 10° N 19:15:00 70° E 19:16:25 53° SE
USA 234 4.1 19:17:27 32° SSE 19:17:27 32° SSE 19:21:41 10° SSW
Cosmos 967 Rocket 4.5 19:09:37 10° NNW 19:16:04 66° NE 19:17:00 59° E
Cosmos 2082 Rocket 2.0 19:12:14 10° NNW 19:17:58 73° ENE 19:18:18 70° E
SPOT 3 Rocket 3.6 19:19:13 63° NE 19:19:13 63° NE 19:23:53 10° N
Cosmos 1812 Rocket 4.0 19:18:21 10° SSW 19:22:43 61° W 19:27:08 10° N
Lacrosse 5 2.3 19:19:35 10° NW 19:23:56 52° N 19:23:56 52° N
Cosmos 1461 4.0 19:25:33 10° NW 19:28:13 40° NW 19:28:13 40° NW
NOSS 3-2 (A) 3.5 19:29:14 10° SSW 19:33:54 61° S 19:33:54 61° S
H-2A R/B 2.5 19:38:01 56° N 19:38:01 56° N 19:42:15 10° NNW
Cosmos 2016 Rocket 4.2 19:33:00 10° N 19:38:11 58° NNE 19:38:11 58° NNE
NOSS 3-3 (A) 4.4 19:34:00 10° NW 19:41:33 81° NE 19:42:40 68° ESE
NOSS 3-3 (C) 4.4 19:34:05 10° NW 19:41:39 81° NE 19:42:44 69° ESE
Cosmos 2061 Rocket 4.1 19:44:15 10° N 19:49:35 66° N 19:49:35 66° N
Cosmos 2278 Rocket 3.6 19:52:55 10° WSW 19:58:05 35° NW 20:03:18 10° N
CZ-2C R/B 4.3 20:02:01 40° N 20:02:01 40° N 20:05:38 10° NNW
H-2A R/B 4.5 19:21:12 10° WSW 20:02:35 44° S 20:04:27 42° SSE
ADEOS Rocket 4.0 20:18:01 10° N 20:25:34 57° WNW 20:32:38 10° SW
SJ 16-02 4.4 20:24:26 10° NNW 20:24:27 10° NNW 20:24:27 10° NNW
